W4JCW Weather Reports


Display with metric or nautical units.
time (UTC)temp
F
wind
direction
speed
MPH
gust
MPH
rain 1hr
in
rain 24hr
in
rain mn
in
humidity
%
barometer
mb
20260510225044 83 356 0.0 2.0 0.00 0.00 0.00 38 1012.9
20260510224540 84 339 1.0 2.0 0.00 0.00 0.00 37 1013.0
20260510224037 84 302 0.0 2.0 0.00 0.00 0.00 37 1012.7
20260510223535 85 349 1.0 3.0 0.00 0.00 0.00 37 1013.0
20260510223032 85 345 2.0 3.0 0.00 0.00 0.00 36 1012.8
20260510222529 86 129 0.0 2.0 0.00 0.00 0.00 36 1012.6
20260510222026 86 327 0.0 3.0 0.00 0.00 0.00 37 1012.6
20260510221521 86 124 2.0 2.0 0.00 0.00 0.00 37 1012.8
20260510221018 87 221 0.0 2.0 0.00 0.00 0.00 36 1012.6
20260510220514 88 344 0.0 2.0 0.00 0.00 0.00 37 1012.6
20260510220010 88 230 0.0 1.0 0.00 0.00 0.00 37 1012.6
20260510215508 86 130 0.0 1.0 0.00 0.00 0.00 40 1012.7
20260510215005 86 327 0.0 2.0 0.00 0.00 0.00 37 1012.7
20260510214502 86 325 2.0 3.0 0.00 0.00 0.00 37 1012.7
20260510213958 87 260 0.0 3.0 0.00 0.00 0.00 38 1012.7
20260510213455 87 338 2.0 3.0 0.00 0.00 0.00 36 1012.6
20260510212952 87 343 0.0 2.0 0.00 0.00 0.00 36 1012.3
20260510212449 87 246 1.0 2.0 0.00 0.00 0.00 37 1012.3
20260510211945 87 356 2.0 4.0 0.00 0.00 0.00 36 1012.4
20260510211443 87 318 2.0 3.0 0.00 0.00 0.00 36 1012.3
20260510210943 88 72 0.0 2.0 0.00 0.00 0.00 36 1012.6
20260510210439 87 10 3.0 3.0 0.00 0.00 0.00 36 1012.3
20260510205938 87 257 2.0 3.0 0.00 0.00 0.00 37 1012.2
20260510205433 87 350 2.0 3.0 0.00 0.00 0.00 35 1012.5
20260510204929 87 329 1.0 3.0 0.00 0.00 0.00 36 1012.4
20260510204426 88 0 2.0 3.0 0.00 0.00 0.00 36 1012.3
20260510203922 88 278 1.0 3.0 0.00 0.00 0.00 36 1012.5
20260510203420 87 297 0.0 2.0 0.00 0.00 0.00 37 1012.4
20260510202920 87 54 2.0 3.0 0.00 0.00 0.00 36 1012.6
20260510202416 87 32 2.0 3.0 0.00 0.00 0.00 37 1012.7
20260510201913 87 320 0.0 3.0 0.00 0.00 0.00 36 1012.7
20260510201410 88 5 2.0 3.0 0.00 0.00 0.00 36 1012.5
20260510200906 87 328 1.0 3.0 0.00 0.00 0.00 36 1012.7
20260510200406 87 311 1.0 3.0 0.00 0.00 0.00 37 1012.7
20260510195900 87 253 2.0 3.0 0.00 0.00 0.00 38 1012.9
20260510195357 87 348 1.0 3.0 0.00 0.00 0.00 36 1012.7
20260510194852 87 319 0.0 2.0 0.00 0.00 0.00 36 1012.8
20260510194349 87 20 1.0 3.0 0.00 0.00 0.00 36 1012.9
20260510193844 87 225 2.0 2.0 0.00 0.00 0.00 37 1012.8
20260510193339 87 285 0.0 4.0 0.00 0.00 0.00 36 1012.9
20260510192835 86 11 3.0 3.0 0.00 0.00 0.00 37 1012.7
20260510192331 86 220 0.0 5.0 0.00 0.00 0.00 37 1013.0
20260510191827 86 181 3.0 3.0 0.00 0.00 0.00 35 1012.9
20260510191323 86 47 2.0 3.0 0.00 0.00 0.00 36 1013.2
20260510190821 85 230 1.0 4.0 0.00 0.00 0.00 38 1013.3
20260510190319 86 276 0.0 3.0 0.00 0.00 0.00 36 1013.0
20260510185814 86 19 2.0 3.0 0.00 0.00 0.00 36 1013.1
20260510185312 86 14 1.0 3.0 0.00 0.00 0.00 36 1013.2
20260510184809 86 201 3.0 3.0 0.00 0.00 0.00 37 1013.2
20260510184307 85 199 1.0 4.0 0.00 0.00 0.00 36 1013.5
20260510183807 86 17 2.0 5.0 0.00 0.00 0.00 36 1013.3
20260510183302 86 352 3.0 3.0 0.00 0.00 0.00 35 1013.5
20260510182758 86 226 3.0 4.0 0.00 0.00 0.00 35 1013.6
20260510182254 86 330 2.0 3.0 0.00 0.00 0.00 38 1013.6
20260510181751 85 344 2.0 3.0 0.00 0.00 0.00 37 1013.7
20260510181248 84 29 2.0 2.0 0.00 0.00 0.00 40 1013.6
20260510180744 85 305 2.0 3.0 0.00 0.00 0.00 40 1013.5
20260510180242 85 344 2.0 3.0 0.00 0.00 0.00 38 1013.6
20260510175738 85 293 2.0 3.0 0.00 0.00 0.00 36 1013.6
20260510175234 85 179 2.0 3.0 0.00 0.00 0.00 36 1013.7
20260510174731 85 18 0.0 3.0 0.00 0.00 0.00 38 1013.7
20260510174228 84 130 0.0 2.0 0.00 0.00 0.00 37 1013.7
20260510173725 84 10 1.0 4.0 0.00 0.00 0.00 36 1014.0
20260510173220 83 24 1.0 3.0 0.00 0.00 0.00 39 1013.8
20260510172715 84 5 4.0 4.0 0.00 0.00 0.00 39 1013.8
20260510172212 84 109 1.0 5.0 0.00 0.00 0.00 40 1014.2
20260510171709 83 30 1.0 2.0 0.00 0.00 0.00 45 1013.9
20260510171206 83 212 2.0 4.0 0.00 0.00 0.00 43 1013.9
20260510170703 83 34 2.0 3.0 0.00 0.00 0.00 43 1014.1
20260510170159 83 173 3.0 3.0 0.00 0.00 0.00 42 1014.3
20260510165655 84 254 1.0 3.0 0.00 0.00 0.00 45 1014.2
20260510165151 83 175 2.0 2.0 0.00 0.00 0.00 43 1014.2
20260510164649 83 200 1.0 4.0 0.00 0.00 0.00 43 1014.1
20260510164146 82 188 0.0 2.0 0.00 0.00 0.00 46 1014.1
20260510163641 82 236 1.0 4.0 0.00 0.00 0.00 44 1014.1
20260510163138 81 123 2.0 4.0 0.00 0.00 0.00 49 1014.2
20260510162637 81 178 2.0 5.0 0.00 0.00 0.00 49 1014.5
20260510162134 81 215 0.0 3.0 0.00 0.00 0.00 52 1014.3
20260510161630 82 281 0.0 2.0 0.00 0.00 0.00 49 1014.5
20260510161127 82 98 2.0 2.0 0.00 0.00 0.00 50 1014.2
20260510160624 81 269 1.0 2.0 0.00 0.00 0.00 52 1014.6
20260510160124 80 162 0.0 2.0 0.00 0.00 0.00 54 1014.5
20260510155620 81 23 1.0 3.0 0.00 0.00 0.00 51 1014.5
20260510155117 80 164 3.0 4.0 0.00 0.00 0.00 53 1014.6
20260510154612 80 290 2.0 3.0 0.00 0.00 0.00 53 1014.5
20260510154108 80 218 3.0 5.0 0.00 0.00 0.00 53 1014.4
20260510153603 80 349 1.0 3.0 0.00 0.00 0.00 56 1014.6
20260510153100 79 122 2.0 3.0 0.00 0.00 0.00 56 1014.5
20260510152557 78 159 2.0 3.0 0.00 0.00 0.00 55 1014.6
20260510152053 79 59 3.0 4.0 0.00 0.00 0.00 58 1014.6
20260510151550 78 290 1.0 3.0 0.00 0.00 0.00 57 1014.3
20260510151048 78 139 2.0 4.0 0.00 0.00 0.00 60 1014.5
20260510150542 77 89 0.0 4.0 0.00 0.00 0.00 63 1014.4
20260510150038 76 292 0.0 2.0 0.00 0.00 0.00 65 1014.2
20260510145535 76 83 2.0 3.0 0.00 0.00 0.00 65 1014.4
20260510145032 76 92 2.0 5.0 0.00 0.00 0.00 65 1014.3
20260510144528 75 50 1.0 3.0 0.00 0.00 0.00 68 1014.4
20260510144024 75 16 2.0 3.0 0.00 0.00 0.00 67 1014.5
20260510143520 75 50 2.0 2.0 0.00 0.00 0.00 68 1014.4
20260510143016 74 54 2.0 3.0 0.00 0.00 0.00 70 1014.3
20260510142513 75 229 2.0 2.0 0.00 0.00 0.00 70 1014.2
20260510142010 75 51 1.0 3.0 0.00 0.00 0.00 71 1014.4
20260510141506 74 211 1.0 3.0 0.00 0.00 0.00 71 1014.4
20260510141004 74 61 2.0 3.0 0.00 0.00 0.00 73 1014.4
20260510140500 74 148 2.0 5.0 0.00 0.00 0.00 72 1014.2
20260510140000 74 93 1.0 3.0 0.00 0.00 0.00 73 1014.1
20260510135455 73 38 0.0 1.0 0.00 0.00 0.00 77 1014.3
20260510134952 72 301 1.0 3.0 0.00 0.00 0.00 77 1014.4
20260510134449 71 237 1.0 2.0 0.00 0.00 0.00 79 1014.3
20260510133946 71 19 3.0 4.0 0.00 0.00 0.00 80 1014.3
20260510133442 70 32 0.0 2.0 0.00 0.00 0.00 81 1014.2
20260510132938 70 140 0.0 2.0 0.00 0.00 0.00 83 1014.4
20260510132435 69 18 2.0 3.0 0.00 0.00 0.00 84 1014.3
20260510131932 69 44 0.0 1.0 0.00 0.00 0.00 85 1014.1
20260510131430 68 33 2.0 2.0 0.00 0.00 0.00 86 1014.1
20260510130926 68 56 0.0 2.0 0.00 0.00 0.00 87 1014.3
20260510130423 68 44 0.0 1.0 0.00 0.00 0.00 88 1014.3
20260510125920 67 33 0.0 2.0 0.00 0.00 0.00 89 1014.2
20260510125416 67 22 0.0 2.0 0.00 0.00 0.00 89 1014.2
20260510124913 67 15 2.0 2.0 0.00 0.00 0.00 90 1014.0
20260510124410 66 21 0.0 2.0 0.00 0.00 0.00 91 1014.4
20260510123906 66 47 1.0 2.0 0.00 0.00 0.00 92 1014.3
20260510123402 65 73 1.0 2.0 0.00 0.00 0.00 94 1014.0
20260510122858 65 345 0.0 1.0 0.00 0.00 0.00 96 1014.0
20260510122353 65 243 0.0 1.0 0.00 0.00 0.00 97 1013.9
20260510121850 64 15 0.0 2.0 0.00 0.00 0.00 98 1013.9
20260510121348 64 44 0.0 1.0 0.00 0.00 0.00 98 1014.0
20260510120845 64 79 0.0 2.0 0.00 0.00 0.00 98 1013.9
20260510120342 63 79 0.0 2.0 0.00 0.00 0.00 98 1013.9
20260510115837 63 85 0.0 1.0 0.00 0.00 0.00 98 1013.9
20260510115335 63 104 0.0 2.0 0.00 0.00 0.00 98 1013.9
20260510114830 63 54 1.0 2.0 0.00 0.00 0.00 98 1013.7
20260510114328 62 67 2.0 2.0 0.00 0.00 0.00 98 1013.5
20260510113828 62 68 0.0 2.0 0.00 0.00 0.00 98 1013.7
20260510113325 62 96 0.0 1.0 0.00 0.00 0.00 98 1013.6
20260510112822 62 89 0.0 2.0 0.00 0.00 0.00 98 1013.5
20260510112318 61 67 0.0 0.0 0.00 0.00 0.00 98 1013.5
20260510111814 61 121 0.0 1.0 0.00 0.00 0.00 98 1013.6
20260510111311 61 100 0.0 1.0 0.00 0.00 0.00 98 1013.4
20260510110811 61 66 0.0 1.0 0.00 0.00 0.00 98 1013.3
20260510110309 61 94 0.0 1.0 0.00 0.00 0.00 98 1013.2
20260510105804 61 84 0.0 1.0 0.00 0.00 0.00 98 1012.8
20260510105258 61 98 0.0 1.0 0.00 0.00 0.00 98 1012.9
20260510104755 61 89 0.0 1.0 0.00 0.00 0.00 98 1012.7
20260510104253 61 82 2.0 2.0 0.00 0.00 0.00 97 1012.7
20260510103749 61 94 0.0 1.0 0.00 0.00 0.00 97 1012.7
20260510103246 61 63 0.0 2.0 0.00 0.00 0.00 97 1012.7
20260510102746 61 63 1.0 1.0 0.00 0.00 0.00 97 1012.6
20260510102242 61 114 1.0 2.0 0.00 0.00 0.00 97 1012.6
20260510101740 61 79 1.0 2.0 0.00 0.00 0.00 97 1012.3
20260510101238 61 106 1.0 1.0 0.00 0.00 0.00 97 1012.4
20260510100733 61 89 0.0 1.0 0.00 0.00 0.00 97 1012.2
20260510100232 61 93 0.0 1.0 0.00 0.00 0.00 97 1012.2
20260510095727 61 256 0.0 0.0 0.00 0.00 0.00 97 1012.2
20260510095222 61 82 0.0 1.0 0.00 0.00 0.00 97 1012.1
20260510094721 62 89 1.0 2.0 0.00 0.00 0.00 97 1012.2
20260510094217 62 190 0.0 1.0 0.00 0.00 0.00 97 1012.2
20260510093713 62 113 0.0 2.0 0.00 0.00 0.00 97 1012.0
20260510093210 62 94 1.0 2.0 0.00 0.00 0.00 97 1011.9
20260510092707 62 132 0.0 1.0 0.00 0.00 0.00 97 1012.1
20260510092202 62 69 1.0 2.0 0.00 0.00 0.00 97 1012.0
20260510091658 62 70 2.0 2.0 0.00 0.00 0.00 97 1011.7
20260510091154 62 93 0.0 1.0 0.00 0.00 0.00 97 1011.6
20260510090651 62 151 0.0 1.0 0.00 0.00 0.00 97 1011.7
20260510090148 62 134 0.0 2.0 0.00 0.00 0.00 97 1011.7
20260510085643 62 68 0.0 2.0 0.00 0.00 0.00 97 1011.8
20260510085138 62 85 2.0 2.0 0.00 0.00 0.00 97 1011.8
20260510084635 62 102 1.0 1.0 0.00 0.00 0.00 97 1011.6
20260510084132 62 113 1.0 2.0 0.00 0.00 0.00 97 1011.5
20260510083628 62 49 0.0 2.0 0.00 0.00 0.00 97 1011.5
20260510083125 62 115 1.0 2.0 0.00 0.00 0.00 97 1011.2
20260510082621 62 130 0.0 1.0 0.00 0.00 0.00 97 1011.5
20260510082118 62 59 1.0 2.0 0.00 0.00 0.00 97 1011.3
20260510081617 62 49 0.0 2.0 0.00 0.00 0.00 97 1011.4
20260510081114 62 94 2.0 2.0 0.00 0.00 0.00 97 1011.2
20260510080613 62 83 0.0 2.0 0.00 0.00 0.00 97 1011.2
20260510080110 62 106 1.0 2.0 0.00 0.00 0.00 97 1011.2
20260510075607 62 119 0.0 0.0 0.00 0.00 0.00 97 1011.2
20260510075104 62 82 0.0 2.0 0.00 0.00 0.00 97 1011.3
20260510074602 62 137 2.0 2.0 0.00 0.00 0.00 97 1011.1
20260510074057 62 44 0.0 1.0 0.00 0.00 0.00 97 1011.2
20260510073553 62 44 0.0 1.0 0.00 0.00 0.00 97 1011.3
20260510073050 62 108 0.0 1.0 0.00 0.00 0.00 97 1011.1
20260510072547 62 128 1.0 1.0 0.00 0.00 0.00 97 1011.0
20260510072042 62 77 0.0 1.0 0.00 0.00 0.00 97 1011.2
20260510071539 62 88 1.0 2.0 0.00 0.00 0.00 96 1011.2
20260510071037 62 84 2.0 3.0 0.00 0.00 0.00 97 1011.2
20260510070534 62 102 1.0 2.0 0.00 0.00 0.00 96 1011.0
20260510070030 62 119 0.0 1.0 0.00 0.00 0.00 96 1011.2
20260510065527 62 141 0.0 2.0 0.00 0.00 0.00 96 1011.1
20260510065023 62 94 1.0 2.0 0.00 0.00 0.00 96 1011.0
20260510064520 62 103 0.0 2.0 0.00 0.00 0.00 96 1011.1
20260510064016 63 89 0.0 2.0 0.00 0.00 0.00 96 1011.2
20260510063513 63 77 1.0 2.0 0.00 0.00 0.00 96 1011.2
20260510063011 63 67 1.0 2.0 0.00 0.00 0.00 96 1011.0
20260510062506 63 93 1.0 2.0 0.00 0.00 0.00 96 1010.9
20260510062001 63 99 0.0 2.0 0.00 0.00 0.00 96 1011.1
20260510061458 63 81 1.0 2.0 0.00 0.00 0.00 96 1011.1
20260510060955 63 82 1.0 2.0 0.00 0.00 0.00 96 1011.1
20260510060452 63 81 1.0 2.0 0.00 0.00 0.00 96 1011.2
20260510055948 63 120 1.0 2.0 0.00 0.00 0.00 96 1011.2
20260510055444 63 103 1.0 1.0 0.00 0.00 0.00 95 1011.3
20260510054942 63 134 0.0 1.0 0.00 0.00 0.00 95 1011.4
20260510054437 63 129 0.0 1.0 0.00 0.00 0.00 95 1011.3
20260510053932 63 124 0.0 1.0 0.00 0.00 0.00 95 1011.3
20260510053428 63 74 1.0 2.0 0.00 0.00 0.00 95 1011.5
20260510052924 63 81 2.0 2.0 0.00 0.00 0.00 95 1011.4
20260510052420 63 125 0.0 1.0 0.00 0.00 0.00 95 1011.4
20260510051917 63 130 2.0 2.0 0.00 0.00 0.00 95 1011.3
20260510051413 63 101 1.0 2.0 0.00 0.00 0.00 95 1011.4
20260510050910 63 109 1.0 1.0 0.00 0.00 0.00 95 1011.3
20260510050406 63 75 1.0 1.0 0.00 0.00 0.00 95 1011.4
20260510045904 63 66 0.0 1.0 0.00 0.00 0.00 95 1011.6
20260510045401 63 71 1.0 2.0 0.00 0.00 0.00 95 1011.5
20260510044858 63 89 1.0 2.0 0.00 0.00 0.00 94 1011.5
20260510044354 64 87 1.0 2.0 0.00 0.00 0.00 94 1011.4
20260510043851 64 111 0.0 2.0 0.00 0.00 0.00 94 1011.4
20260510043347 64 95 0.0 1.0 0.00 0.00 0.00 94 1011.4
20260510042845 64 103 0.0 1.0 0.00 0.00 0.00 94 1011.2
20260510042340 64 86 0.0 2.0 0.00 0.00 0.00 94 1011.4
20260510041837 64 93 0.0 1.0 0.00 0.00 0.00 93 1011.2
20260510041334 64 135 0.0 2.0 0.00 0.00 0.00 93 1011.5
20260510040832 64 91 1.0 1.0 0.00 0.00 0.00 93 1011.3
20260510040328 64 113 0.0 2.0 0.00 0.00 0.00 93 1011.3
20260510035823 64 106 0.0 2.0 0.00 0.00 0.00 93 1011.3
20260510035320 64 56 2.0 2.0 0.00 0.00 0.00 93 1011.3
20260510034815 64 89 1.0 2.0 0.00 0.00 0.00 93 1011.3
20260510034313 64 102 0.0 1.0 0.00 0.00 0.00 93 1011.3
20260510033809 65 89 0.0 1.0 0.00 0.00 0.00 92 1011.3
20260510033307 65 85 1.0 2.0 0.00 0.00 0.00 92 1011.4
20260510032803 65 59 1.0 2.0 0.00 0.00 0.00 92 1011.0
20260510032300 65 142 0.0 2.0 0.00 0.00 0.00 92 1011.2
20260510031755 65 63 1.0 2.0 0.00 0.00 0.00 92 1011.1
20260510031251 65 84 0.0 2.0 0.00 0.00 0.00 91 1011.3
20260510030751 65 89 0.0 1.0 0.00 0.00 0.00 91 1011.3
20260510030248 65 109 0.0 1.0 0.00 0.00 0.00 90 1011.1
20260510025745 66 54 0.0 1.0 0.00 0.00 0.00 90 1011.3
20260510025243 66 103 0.0 0.0 0.00 0.00 0.00 90 1011.1
20260510024739 66 77 0.0 2.0 0.00 0.00 0.00 89 1011.3
20260510024236 66 75 0.0 2.0 0.00 0.00 0.00 89 1011.6
20260510023732 66 85 2.0 2.0 0.00 0.00 0.00 89 1011.6
20260510023230 66 118 1.0 2.0 0.00 0.00 0.00 88 1011.4
20260510022726 67 91 0.0 1.0 0.00 0.00 0.00 88 1011.6
20260510022225 67 78 0.0 1.0 0.00 0.00 0.00 87 1011.4
20260510021720 67 106 0.0 1.0 0.00 0.00 0.00 87 1011.4
20260510021219 67 66 0.0 1.0 0.00 0.00 0.00 86 1011.2
20260510020713 67 102 0.0 1.0 0.00 0.00 0.00 86 1011.3
20260510020208 67 125 0.0 1.0 0.00 0.00 0.00 86 1011.3
20260510015704 67 50 1.0 2.0 0.00 0.00 0.00 86 1011.3
20260510015201 68 102 0.0 1.0 0.00 0.00 0.00 86 1011.1
20260510014701 68 142 0.0 1.0 0.00 0.00 0.00 85 1011.1
20260510014159 68 111 0.0 1.0 0.00 0.00 0.00 86 1011.1
20260510013654 68 80 0.0 1.0 0.00 0.00 0.00 86 1011.0
20260510013150 68 74 0.0 1.0 0.00 0.00 0.00 86 1011.0
20260510012649 68 122 0.0 1.0 0.00 0.00 0.00 86 1010.9
20260510012145 68 89 0.0 1.0 0.00 0.00 0.00 86 1010.8
20260510011640 68 41 0.0 1.0 0.00 0.00 0.00 86 1010.6
20260510011137 68 79 0.0 2.0 0.00 0.00 0.00 86 1010.7
20260510010632 68 110 0.0 1.0 0.00 0.00 0.00 86 1010.4
20260510010130 68 113 0.0 1.0 0.00 0.00 0.00 86 1010.4
20260510005625 68 103 0.0 1.0 0.00 0.00 0.00 86 1010.5
20260510005123 68 82 1.0 2.0 0.00 0.00 0.00 86 1010.3
20260510004621 68 152 1.0 2.0 0.00 0.00 0.00 85 1010.2
20260510004119 68 131 0.0 1.0 0.00 0.00 0.00 85 1010.0
20260510003616 68 112 0.0 1.0 0.00 0.00 0.00 84 1010.3
20260510003111 69 57 0.0 1.0 0.00 0.00 0.00 84 1010.0
20260510002606 69 98 0.0 0.0 0.00 0.00 0.00 83 1010.1
20260510002103 69 23 0.0 2.0 0.00 0.00 0.00 82 1010.0
20260510001601 69 49 0.0 1.0 0.00 0.00 0.00 82 1009.8
20260510001059 70 37 0.0 1.0 0.00 0.00 0.00 81 1009.6
20260510000559 70 50 0.0 1.0 0.00 0.00 0.00 80 1009.5
20260510000056 70 54 0.0 2.0 0.00 0.00 0.00 80 1009.4
20260509235553 71 63 2.0 2.0 0.00 0.00 0.00 79 1009.4
20260509235050 71 47 0.0 2.0 0.00 0.00 0.00 78 1009.3
20260509234546 71 98 1.0 1.0 0.00 0.00 0.00 78 1009.3
20260509234044 72 37 0.0 2.0 0.00 0.00 0.00 78 1009.3
20260509233541 72 42 0.0 2.0 0.00 0.00 0.00 77 1009.3
20260509233038 72 40 0.0 2.0 0.00 0.00 0.00 77 1009.0
20260509232535 72 15 1.0 2.0 0.00 0.00 0.00 77 1009.2
20260509232031 73 50 0.0 2.0 0.00 0.00 0.00 76 1009.3
20260509231528 73 15 1.0 1.0 0.00 0.00 0.00 76 1009.5
20260509231026 73 40 0.0 2.0 0.00 0.00 0.00 75 1009.4
20260509230522 73 16 0.0 2.0 0.00 0.00 0.00 75 1009.2
20260509230019 73 30 0.0 2.0 0.00 0.00 0.00 75 1009.1
20260509225514 73 63 2.0 2.0 0.00 0.00 0.00 75 1009.1